Rockwood, MI

1:33 AM EST on December 10, 2016 (GMT -0500)
Grosse Ile Municipal

Weather History for KONZ - September, 2013

Change the Weather History Date:

Tuesday, September 17, 2013

  Actual Average (KDTW) Record (KDTW)
Temperature  
Mean Temperature 55 °F -  
Max Temperature 66 °F 73 °F 93 °F (1955)
Min Temperature 44 °F 53 °F 36 °F (1959)
Degree Days  
Heating Degree Days 10    
Growing Degree Days 5 (Base 50)    
Moisture  
Dew Point 45 °F    
Average Humidity 69    
Maximum Humidity 93    
Minimum Humidity 35    
Precipitation  
Precipitation 0.00 in - - ()
Sea Level Pressure  
Sea Level Pressure 30.33 in    
Wind  
Wind Speed 5 mph (ENE)    
Max Wind Speed 10 mph    
Max Gust Speed -    
Visibility 10 miles    
Events      
Averages and records for this station are not official NWS values.
T = Trace of Precipitation, MM = Missing Value Source: NWS Daily Summary

Daily Weather History Graph

Daily Weather History Graph

Search for Another Location

Airport or City:

Trip Planner

Search our weather history database for the weather conditions in past years. The results will help you decide how hot, cold, wet, or windy it might be!

Date:

Astronomy

Sep. 17, 2013 Rise Set
Actual Time 7:15 AM EDT 7:38 PM EDT
Civil Twilight 6:47 AM EDT 8:06 PM EDT
Nautical Twilight 6:14 AM EDT 8:39 PM EDT
Astronomical Twilight 5:40 AM EDT 9:12 PM EDT
Moon 6:25 PM EDT (9/17) 5:06 AM EDT (9/17)
Length of Visible Light 13h 19m
Length of Day
12h 23m
Waxing Gibbous, 96% of the Moon is Illuminated
Sep 17
Waxing Gibbous
Sep 19
Full
Sep 26
Last Quarter
Oct 4
New
Oct 11
First Quarter

Hourly Weather History & Observations

Time (EDT) Temp. Windchill Dew Point Humidity Pressure Visibility Wind Dir Wind Speed Gust Speed Precip Events Conditions
12:14 AM 51.8 °F - 44.6 °F 76% 30.36 in 10.0 mi NNE 10.4 mph - N/A   Clear
12:34 AM 51.8 °F - 42.8 °F 71% 30.36 in 10.0 mi NNE 8.1 mph - N/A   Clear
12:54 AM 51.8 °F - 42.8 °F 71% 30.36 in 10.0 mi NNE 6.9 mph - N/A   Clear
1:15 AM 50.0 °F - 42.8 °F 76% 30.37 in 10.0 mi North 5.8 mph - N/A   Clear
1:34 AM 50.0 °F - 44.6 °F 82% 30.36 in 10.0 mi North 5.8 mph - N/A   Clear
1:54 AM 48.2 °F - 44.6 °F 87% 30.37 in 10.0 mi NNE 3.5 mph - N/A   Clear
2:14 AM 48.2 °F - 44.6 °F 87% 30.37 in 10.0 mi NNE 4.6 mph - N/A   Clear
2:34 AM 48.2 °F - 44.6 °F 87% 30.37 in 10.0 mi NNE 5.8 mph - N/A   Clear
2:55 AM 48.2 °F - 44.6 °F 87% 30.37 in 10.0 mi NNE 4.6 mph - N/A   Clear
3:14 AM 48.2 °F - 44.6 °F 87% 30.37 in 10.0 mi NNE 5.8 mph - N/A   Clear
3:34 AM 48.2 °F - 44.6 °F 87% 30.37 in 10.0 mi Calm Calm - N/A   Clear
3:54 AM 46.4 °F - 42.8 °F 87% 30.37 in 10.0 mi Calm Calm - N/A   Clear
4:14 AM 44.6 °F 43.1 °F 42.8 °F 93% 30.37 in 10.0 mi NW 3.5 mph - N/A   Clear
4:34 AM 46.4 °F 44.3 °F 42.8 °F 87% 30.37 in 10.0 mi NNW 4.6 mph - N/A   Clear
4:54 AM 44.6 °F 43.1 °F 42.8 °F 93% 30.38 in 10.0 mi NNW 3.5 mph - N/A   Clear
5:14 AM 44.6 °F 42.2 °F 42.8 °F 93% 30.38 in 10.0 mi NNW 4.6 mph - N/A   Clear
5:34 AM 44.6 °F 43.1 °F 42.8 °F 93% 30.38 in 10.0 mi NNW 3.5 mph - N/A   Scattered Clouds
5:54 AM 44.6 °F 43.1 °F 42.8 °F 93% 30.38 in 10.0 mi NNW 3.5 mph - N/A   Mostly Cloudy
6:14 AM 46.4 °F 45.2 °F 42.8 °F 87% 30.38 in 10.0 mi NNW 3.5 mph - N/A   Mostly Cloudy
6:34 AM 44.6 °F - 42.8 °F 93% 30.38 in 10.0 mi Calm Calm - N/A   Scattered Clouds
6:54 AM 44.6 °F - 42.8 °F 93% 30.38 in 10.0 mi Calm Calm - N/A   Scattered Clouds
7:14 AM 46.4 °F 45.2 °F 42.8 °F 87% 30.39 in 10.0 mi North 3.5 mph - N/A   Mostly Cloudy
7:34 AM 46.4 °F 45.2 °F 42.8 °F 87% 30.39 in 10.0 mi North 3.5 mph - N/A   Mostly Cloudy
7:54 AM 46.4 °F 45.2 °F 42.8 °F 87% 30.39 in 10.0 mi NNW 3.5 mph - N/A   Mostly Cloudy
8:14 AM 48.2 °F - 44.6 °F 87% 30.39 in 10.0 mi Calm Calm - N/A   Mostly Cloudy
8:34 AM 50.0 °F - 46.4 °F 87% 30.39 in 10.0 mi Calm Calm - N/A   Mostly Cloudy
8:54 AM 51.8 °F - 48.2 °F 88% 30.39 in 10.0 mi NE 6.9 mph - N/A   Scattered Clouds
9:14 AM 53.6 °F - 48.2 °F 82% 30.39 in 10.0 mi NE 5.8 mph - N/A   Scattered Clouds
9:34 AM 53.6 °F - 48.2 °F 82% 30.39 in 10.0 mi NE 4.6 mph - N/A   Mostly Cloudy
9:54 AM 55.4 °F - 48.2 °F 77% 30.39 in 10.0 mi ENE 4.6 mph - N/A   Overcast
10:15 AM 57.2 °F - 50.0 °F 77% 30.39 in 10.0 mi ENE 5.8 mph - N/A   Mostly Cloudy
10:34 AM 59.0 °F - 51.8 °F 77% 30.39 in 10.0 mi East 5.8 mph - N/A   Mostly Cloudy
10:54 AM 60.8 °F - 48.2 °F 63% 30.38 in 10.0 mi East 8.1 mph - N/A   Mostly Cloudy
11:14 AM 60.8 °F - 48.2 °F 63% 30.38 in 10.0 mi SE 4.6 mph - N/A   Mostly Cloudy
11:34 AM 62.6 °F - 48.2 °F 59% 30.38 in 10.0 mi ESE 5.8 mph - N/A   Mostly Cloudy
11:54 AM 64.4 °F - 48.2 °F 56% 30.38 in 10.0 mi ESE 5.8 mph - N/A   Scattered Clouds
12:14 PM 64.4 °F - 48.2 °F 56% 30.37 in 10.0 mi ESE 5.8 mph - N/A   Scattered Clouds
12:34 PM 64.4 °F - 48.2 °F 56% 30.37 in 10.0 mi SE 6.9 mph - N/A   Clear
12:54 PM 64.4 °F - 46.4 °F 52% 30.36 in 10.0 mi ESE 4.6 mph - N/A   Clear
1:14 PM 64.4 °F - 46.4 °F 52% 30.35 in 10.0 mi East 5.8 mph - N/A   Clear
1:34 PM 66.2 °F - 42.8 °F 43% 30.35 in 10.0 mi SE 5.8 mph - N/A   Clear
1:54 PM 64.4 °F - 48.2 °F 56% 30.34 in 10.0 mi SSE 10.4 mph - N/A   Clear
2:14 PM 64.4 °F - 50.0 °F 59% 30.33 in 10.0 mi SE 9.2 mph - N/A   Clear
2:34 PM 64.4 °F - 48.2 °F 56% 30.33 in 10.0 mi South 10.4 mph - N/A   Clear
2:54 PM 64.4 °F - 48.2 °F 56% 30.32 in 10.0 mi SSE 9.2 mph - N/A   Clear
3:14 PM 66.2 °F - 48.2 °F 52% 30.31 in 10.0 mi South 10.4 mph - N/A   Clear
3:34 PM 66.2 °F - 46.4 °F 49% 30.31 in 10.0 mi SSE 9.2 mph - N/A   Clear
3:54 PM 64.4 °F - 46.4 °F 52% 30.30 in 10.0 mi SSE 8.1 mph - N/A   Clear
4:14 PM 64.4 °F - 46.4 °F 52% 30.29 in 10.0 mi SSE 9.2 mph - N/A   Clear
4:33 PM 64.4 °F - 44.6 °F 49% 30.29 in 10.0 mi SSE 8.1 mph - N/A   Clear
4:54 PM 64.4 °F - 44.6 °F 49% 30.28 in 10.0 mi SSE 8.1 mph - N/A   Clear
5:14 PM 66.2 °F - 37.4 °F 35% 30.28 in 10.0 mi SSE 8.1 mph - N/A   Clear
5:34 PM 64.4 °F - 37.4 °F 37% 30.27 in 10.0 mi ESE 5.8 mph - N/A   Clear
5:54 PM 64.4 °F - 39.2 °F 40% 30.27 in 10.0 mi ESE 6.9 mph - N/A   Clear
6:15 PM 64.4 °F - 37.4 °F 37% 30.27 in 10.0 mi ESE 5.8 mph - N/A   Clear
6:34 PM 64.4 °F - 37.4 °F 37% 30.26 in 10.0 mi ESE 4.6 mph - N/A   Clear
6:54 PM 62.6 °F - 39.2 °F 42% 30.26 in 10.0 mi Calm Calm - N/A   Clear
7:14 PM 60.8 °F - 41.0 °F 48% 30.26 in 10.0 mi Calm Calm - N/A   Clear
7:34 PM 60.8 °F - 41.0 °F 48% 30.25 in 10.0 mi East 5.8 mph - N/A   Clear
7:55 PM 59.0 °F - 42.8 °F 55% 30.25 in 10.0 mi East 4.6 mph - N/A   Clear
8:14 PM 59.0 °F - 42.8 °F 55% 30.25 in 10.0 mi Calm Calm - N/A   Clear
8:34 PM 59.0 °F - 44.6 °F 59% 30.25 in 10.0 mi Calm Calm - N/A   Clear
8:55 PM 57.2 °F - 44.6 °F 63% 30.25 in 10.0 mi Calm Calm - N/A   Clear
9:14 PM 57.2 °F - 46.4 °F 67% 30.24 in 10.0 mi Calm Calm - N/A   Clear
9:34 PM 57.2 °F - 46.4 °F 67% 30.24 in 10.0 mi East 3.5 mph - N/A   Clear
9:54 PM 55.4 °F - 46.4 °F 72% 30.23 in 10.0 mi ENE 3.5 mph - N/A   Clear
10:14 PM 55.4 °F - 48.2 °F 77% 30.23 in 10.0 mi East 3.5 mph - N/A   Clear
10:34 PM 57.2 °F - 48.2 °F 72% 30.22 in 10.0 mi East 4.6 mph - N/A   Clear
10:54 PM 57.2 °F - 48.2 °F 72% 30.22 in 10.0 mi East 5.8 mph - N/A   Clear
11:14 PM 57.2 °F - 50.0 °F 77% 30.22 in 10.0 mi East 5.8 mph - N/A   Clear
11:34 PM 57.2 °F - 50.0 °F 77% 30.22 in 10.0 mi Calm Calm - N/A   Clear
11:54 PM 55.4 °F - 50.0 °F 82% 30.21 in 10.0 mi East 3.5 mph - N/A   Clear